Startseite
Über Mich
AHP4
Galerie
Sehschlangen
Tourenbuch
Bookmarks
Elektronik
Bewertung
Geschichten
[Tagesmessung] [Jahreswerte] [Information]

Messwerte vom 06.03.2022

Die letzten Messwerte von 23:58:45 Uhr:
KategorieMesswert
Temperatur [°C]-1
Luftdruck [mBar]1010
Sonneneinstrahlung0
Wind [km/h]0 aus Süd
Niederschlag [l/m²]0
rel.Luftfeucht.80.1%
CO2 [ppm]710

Diagramme
Messwerte vom 06.03.2022
Tagesaggregation
KategorieMinimumMaximumSchnittSumme
Temperatur [°C]-120.3938
Luftdruck [mBar]100910111009.7958
Sonneneinstrahlung22487.3979
Wind [km/h]0
rF [%]60.283.574.06
Niederschlag [l/m²]0
CO2 [ppm]403739554.4
Einordnung alsFrosttag
Kalter Tag

Messungen an benachbarten Tagen: Zur Jahresaggregation 2022
Tabelle aller Messwerte
UhrzeitTemperatur [°C]Luftdruck [mBar]SonneWind [km/h]RichtungRegen [l/m²]rF [%]CO2 [ppm]
00:01:46 1 1009 0 0 N 0 78.6 574
00:04:45 1 1009 0 0 O 0 78.8 572
00:07:48 1 1009 0 0 N 0 78.7 568
00:10:48 1 1009 0 0 NO 0 78.7 568
00:13:47 1 1009 0 0 0 79 566
00:16:43 1 1009 0 0 N 0 79.1 564
00:19:45 1 1009 0 0 N 0 79 562
00:22:46 1 1009 0 0 NO 0 79.2 565
00:25:48 1 1009 0 0 O 0 78.9 574
00:28:47 1 1009 0 0 NO 0 78.9 566
00:31:46 1 1009 0 0 O 0 79.1 565
00:34:46 1 1009 0 0 O 0 79.4 566
00:37:48 1 1009 0 0 S 0 79.5 563
00:40:47 1 1009 0 0 NO 0 79.6 559
00:43:46 1 1009 0 0 NO 0 79.8 559
00:46:47 1 1009 0 0 S 0 80 560
00:49:46 1 1009 0 0 O 0 80 556
00:52:48 1 1009 0 0 NO 0 80.2 556
00:55:50 1 1009 0 0 SO 0 80.2 561
00:58:45 1 1009 0 0 0 80.4 559
01:01:47 1 1009 0 0 NO 0 80.6 556
01:04:45 1 1009 0 0 O 0 80.6 548
01:07:47 1 1009 0 0 O 0 80.5 550
01:10:47 1 1009 0 0 NO 0 80.3 550
01:13:45 1 1009 0 0 O 0 80.2 556
01:16:47 1 1009 0 0 O 0 80.2 547
01:19:48 1 1009 0 0 NO 0 80.3 540
01:22:46 1 1009 0 0 O 0 80.6 539
01:25:46 1 1009 0 0 O 0 80.8 536
01:28:45 1 1009 0 0 O 0 80.9 545
01:31:47 1 1009 0 0 N 0 80.8 542
01:34:50 1 1009 0 0 NW 0 80.9 547
01:37:49 1 1009 0 0 O 0 81.2 549
01:40:48 1 1009 0 0 NO 0 81.5 550
01:43:48 0 1009 0 0 NO 0 81.7 550
01:46:46 0 1009 0 0 NW 0 81.7 548
01:49:46 0 1009 0 0 O 0 81.7 544
01:52:46 0 1010 0 0 NO 0 81.7 550
01:55:47 0 1009 0 0 N 0 81.7 550
01:58:47 0 1009 0 0 NW 0 81.8 553
02:01:47 0 1009 0 0 O 0 81.8 552
02:04:49 0 1009 0 0 O 0 81.9 550
02:07:47 0 1009 0 0 S 0 82 548
02:10:47 0 1009 0 0 NO 0 81.9 541
02:13:45 0 1009 0 0 0 82.2 541
02:16:44 0 1010 0 0 N 0 82.4 542
02:19:48 0 1009 0 0 O 0 82.5 542
02:22:47 0 1010 0 0 NO 0 82.5 541
02:25:48 0 1010 0 0 O 0 82.5 542
02:28:49 0 1009 0 0 NO 0 82.5 530
02:31:48 0 1009 0 0 O 0 82.6 538
02:34:44 0 1009 0 0 O 0 82.7 533
02:37:46 0 1010 0 0 NO 0 82.9 536
02:40:45 0 1010 0 0 NO 0 83.1 529
02:43:47 0 1009 0 0 NW 0 83 530
02:46:47 0 1010 0 0 N 0 82.9 529
02:49:45 0 1009 0 0 O 0 82.9 533
02:52:46 0 1009 0 0 N 0 82.8 527
02:55:48 0 1009 0 0 SO 0 82.9 526
02:58:48 0 1009 0 0 O 0 83 530
03:01:45 0 1009 0 0 O 0 82.9 532
03:04:47 0 1009 0 0 NO 0 82.9 544
03:07:47 0 1009 0 0 O 0 83 536
03:10:47 0 1009 0 0 SO 0 83.2 541
03:13:46 0 1010 0 0 SO 0 83.2 539
03:16:47 0 1010 0 0 N 0 83.5 533
03:19:47 0 1009 0 0 NO 0 83.4 535
03:22:46 0 1009 0 0 SO 0 83.4 538
03:25:47 0 1009 0 0 NO 0 83.5 538
03:28:46 0 1009 0 0 NO 0 83.5 537
03:31:45 0 1009 0 0 O 0 83.1 541
03:34:46 0 1010 0 0 SO 0 83 544
03:37:47 0 1010 0 0 O 0 83.1 542
03:40:48 0 1009 0 0 NO 0 83.2 539
03:43:46 0 1009 0 0 N 0 83.2 533
03:46:47 0 1009 0 0 NO 0 83.1 533
03:49:47 0 1009 0 0 N 0 82.8 518
03:52:46 0 1009 0 0 O 0 82.7 521
03:55:48 0 1010 0 0 NO 0 82.5 523
03:58:46 0 1009 0 0 O 0 82.4 530
04:01:48 0 1010 0 0 O 0 82.5 530
04:04:50 0 1009 0 0 N 0 82.4 536
04:07:47 0 1009 0 0 NO 0 82.4 531
04:10:47 0 1009 0 0 N 0 82.3 536
04:13:45 0 1009 0 0 O 0 82 533
04:16:46 0 1009 0 0 O 0 82 530
04:19:47 0 1009 0 0 O 0 82 530
04:22:47 0 1009 0 0 N 0 81.8 536
04:25:48 0 1009 0 0 SO 0 81.5 538
04:28:49 0 1009 0 0 O 0 81.6 530
04:31:47 0 1009 0 0 N 0 81.9 524
04:34:45 0 1009 0 0 NO 0 82 524
04:37:47 0 1010 0 0 O 0 82.2 528
04:40:46 0 1009 0 0 N 0 82.1 533
04:43:48 0 1010 0 0 SO 0 82 536
04:46:51 0 1009 0 0 NO 0 82.2 534
04:49:48 0 1009 0 0 0 82 531
04:52:47 0 1009 0 0 N 0 82 530
04:55:51 0 1010 0 0 N 0 82 529
04:58:47 0 1009 0 0 NO 0 82.3 521
05:01:47 0 1009 0 0 O 0 82.4 524
05:04:47 0 1009 0 0 NO 0 82.5 521
05:07:48 0 1009 0 0 SO 0 82.6 520
05:10:51 0 1009 0 0 NO 0 82.4 521
05:13:48 0 1009 0 0 W 0 82.4 527
05:16:47 0 1010 0 0 N 0 82.4 533
05:19:49 0 1009 0 0 NO 0 82.4 538
05:22:45 0 1009 0 0 O 0 82.3 533
05:25:48 0 1009 0 0 SO 0 82 543
05:28:49 0 1009 0 0 NO 0 81.7 533
05:31:45 0 1009 0 0 N 0 81.5 533
05:34:48 0 1009 0 0 NO 0 81.4 532
05:37:46 0 1010 0 0 O 0 81.3 532
05:40:47 0 1009 0 0 SO 0 81.4 533
05:43:47 0 1009 0 0 SO 0 81.3 533
05:46:45 0 1009 0 0 O 0 81.3 532
05:49:46 0 1009 0 0 O 0 81.1 536
05:52:45 0 1009 0 0 0 81.3 532
05:55:48 0 1010 0 0 NW 0 81.4 530
05:58:46 0 1009 0 0 O 0 81.4 532
06:01:47 0 1009 0 0 S 0 81.4 542
06:04:45 0 1009 0 0 N 0 81.4 541
06:07:48 0 1009 0 0 W 0 81.3 538
06:10:48 0 1010 0 0 SO 0 81.2 532
06:13:46 0 1010 0 0 O 0 81.2 532
06:16:47 0 1010 0 0 O 0 81.4 530
06:19:47 -1 1010 0 0 NW 0 81.6 526
06:22:48 -1 1010 0 0 S 0 81.9 524
06:25:47 -1 1010 0 0 N 0 81.8 521
06:28:50 -1 1010 0 0 NO 0 81.9 528
06:31:49 -1 1010 0 0 O 0 82 530
06:34:47 -1 1010 4 0 S 0 82.1 527
06:37:47 -1 1009 7 0 O 0 82.6 524
06:40:48 -1 1010 11 0 SO 0 82.6 526
06:43:48 -1 1010 15 0 NW 0 82.1 526
06:46:47 -1 1010 21 0 NO 0 82.2 530
06:49:49 -1 1009 28 0 S 0 82.2 527
06:52:48 -1 1010 35 0 O 0 82.2 521
06:55:47 -1 1010 43 0 O 0 82.2 515
06:58:48 -1 1010 50 0 O 0 82.1 521
07:01:47 -1 1009 57 0 SO 0 81.7 535
07:04:45 -1 1010 65 0 O 0 81.7 541
07:07:49 -1 1010 74 0 NO 0 82.1 544
07:10:47 -1 1010 81 0 O 0 82.2 547
07:13:46 -1 1010 87 0 O 0 82.4 550
07:16:48 -1 1010 94 0 O 0 82.3 562
07:19:48 -1 1010 102 0 O 0 82.2 574
07:22:48 -1 1010 109 0 N 0 82.1 583
07:25:46 0 1009 117 0 O 0 82.1 577
07:28:48 0 1010 122 0 O 0 82.2 574
07:31:48 0 1009 129 0 O 0 82.2 580
07:34:48 0 1010 135 0 SO 0 82.1 585
07:37:48 0 1009 140 0 SO 0 82.1 595
07:40:50 0 1010 145 0 SO 0 82.3 605
07:43:50 0 1010 147 0 O 0 82.4 612
07:46:47 0 1010 149 0 O 0 82.5 612
07:49:48 0 1010 152 0 O 0 82.5 609
07:52:48 0 1010 156 0 S 0 82.6 609
07:55:48 0 1010 159 0 O 0 82.7 606
07:58:50 0 1009 163 0 O 0 82.9 594
08:01:47 0 1010 169 0 N 0 82.9 591
08:04:48 0 1010 172 0 0 82.6 589
08:07:47 0 1010 176 0 N 0 82.3 586
08:10:47 0 1010 179 0 O 0 82 582
08:13:49 0 1010 180 0 SO 0 81.9 581
08:16:48 0 1010 181 0 NW 0 81.4 577
08:19:49 0 1010 183 0 NO 0 81.2 571
08:22:49 0 1010 185 0 N 0 81.3 565
08:25:48 0 1010 187 0 NO 0 81.2 562
08:28:50 0 1010 189 0 NW 0 81 565
08:31:47 0 1010 190 0 NO 0 81 562
08:34:48 0 1010 191 0 NO 0 80.5 559
08:37:47 0 1010 192 0 O 0 80.2 550
08:40:49 0 1010 194 0 NW 0 79.7 545
08:43:48 0 1010 195 0 NO 0 79.7 541
08:46:47 0 1010 195 0 O 0 79.8 532
08:49:48 0 1010 196 0 N 0 79.9 530
08:52:47 0 1010 197 0 NO 0 79.2 526
08:55:48 0 1010 197 0 N 0 78.2 512
08:58:49 0 1010 197 0 NO 0 78.2 515
09:01:48 0 1010 198 0 N 0 78.1 515
09:04:47 0 1010 198 0 N 0 77.9 507
09:07:49 1 1010 199 0 NO 0 77.7 503
09:10:48 1 1010 200 0 O 0 78 503
09:13:48 1 1010 201 0 N 0 77.5 503
09:16:47 1 1010 202 0 S 0 76.4 498
09:19:52 1 1010 203 0 NW 0 75.7 498
09:22:48 1 1010 204 0 NO 0 75.2 494
09:25:46 1 1010 205 0 O 0 74.9 495
09:28:49 1 1010 205 0 NW 0 74.5 489
09:31:47 1 1010 204 0 NO 0 74.2 486
09:34:46 1 1010 205 0 O 0 74.4 478
09:37:47 1 1010 207 0 NO 0 75 477
09:40:49 1 1010 207 0 W 0 74.7 480
09:43:46 1 1011 207 0 O 0 74.5 475
09:46:48 1 1010 208 0 SO 0 74.3 471
09:49:49 1 1010 209 0 N 0 73.8 466
09:52:47 1 1010 209 0 NO 0 74.1 463
09:55:47 1 1010 210 0 NW 0 74 456
09:58:48 1 1010 210 0 NO 0 73.4 448
10:01:47 1 1010 212 0 O 0 73.5 442
10:04:46 1 1010 212 0 N 0 73.6 439
10:07:45 1 1010 212 0 N 0 72.6 437
10:10:47 1 1010 213 0 O 0 72.5 436
10:13:47 1 1010 214 0 N 0 72.3 436
10:16:46 1 1010 214 0 NO 0 71.9 436
10:19:45 1 1010 215 0 W 0 71.1 434
10:22:48 1 1011 214 0 NO 0 70.9 430
10:25:48 1 1010 215 0 N 0 70.7 427
10:28:49 1 1010 216 0 NO 0 70.7 427
10:31:46 1 1010 214 0 N 0 70.9 421
10:34:48 1 1010 213 0 NO 0 69.5 418
10:37:47 1 1011 209 0 N 0 69.3 421
10:40:48 1 1011 207 0 N 0 70.2 419
10:43:45 1 1011 205 0 S 0 70.4 412
10:46:47 1 1010 204 0 O 0 69.8 403
10:49:47 1 1010 204 0 NO 0 69 407
10:52:46 1 1010 205 0 0 68.2 407
10:55:48 1 1010 205 0 NW 0 68.3 405
10:58:47 1 1011 206 0 O 0 69.2 404
11:01:47 1 1010 206 0 N 0 69 408
11:04:49 1 1010 208 0 NO 0 68.8 404
11:07:48 1 1010 209 0 SO 0 68.1 404
11:10:49 1 1010 209 0 N 0 68.1 404
11:13:45 1 1010 210 0 N 0 68.1 553
11:16:46 1 1010 210 0 NO 0 68.4 550
11:19:48 1 1010 210 0 NO 0 68.9 545
11:22:48 1 1010 211 0 SO 0 68.4 542
11:25:47 1 1010 211 0 N 0 68 526
11:28:46 1 1010 210 0 W 0 66.9 541
11:31:47 1 1010 210 0 SO 0 66.6 542
11:34:47 1 1010 207 0 N 0 66.8 538
11:37:47 1 1010 206 0 W 0 65.9 535
11:40:49 1 1011 205 0 NO 0 65.6 525
11:43:47 1 1010 207 0 NW 0 65.7 529
11:46:46 1 1010 207 0 W 0 64.1 526
11:49:47 1 1010 206 0 NO 0 63.8 524
11:52:46 1 1010 207 0 O 0 63.9 530
11:55:45 1 1011 204 0 O 0 64.7 535
11:58:46 1 1010 206 0 0 64.8 529
12:01:47 1 1010 205 0 N 0 64.8 527
12:04:47 1 1010 203 0 O 0 64.7 524
12:07:49 1 1010 206 0 SW 0 63.1 521
12:10:48 1 1010 206 0 NO 0 64.2 517
12:13:49 1 1010 204 0 N 0 64.1 518
12:16:47 1 1010 203 0 NW 0 63.5 515
12:19:47 1 1010 204 0 0 64 515
12:22:46 1 1010 204 0 NO 0 64 510
12:25:46 1 1010 206 0 O 0 64.1 503
12:28:48 1 1010 208 0 NW 0 64.7 507
12:31:46 1 1011 211 0 N 0 64.3 498
12:34:45 1 1010 210 0 0 63.8 495
12:37:46 1 1010 210 0 N 0 63.1 492
12:40:46 1 1010 212 0 N 0 62.8 495
12:43:46 1 1010 210 0 N 0 61.8 497
12:46:47 1 1010 208 0 N 0 62.2 495
12:49:47 1 1010 208 0 O 0 62.6 497
12:52:45 1 1010 207 0 N 0 62.2 497
12:55:47 1 1010 208 0 N 0 62.4 500
12:58:49 1 1010 207 0 N 0 61.6 498
13:01:45 1 1010 207 0 O 0 61.1 500
13:04:50 1 1010 208 0 NW 0 61 500
13:07:48 1 1010 211 0 NW 0 61 489
13:10:47 1 1010 212 0 N 0 61.1 489
13:13:45 1 1010 211 0 N 0 61.1 488
13:16:48 1 1010 213 0 NO 0 61.8 486
13:19:47 1 1010 211 0 NO 0 61.1 483
13:22:46 1 1010 210 0 N 0 61.6 480
13:25:49 1 1010 211 0 NW 0 61.1 486
13:28:49 1 1010 211 0 NW 0 60.9 486
13:31:48 1 1010 210 0 NO 0 61.7 481
13:34:48 1 1010 212 0 W 0 61.7 483
13:37:46 1 1010 211 0 NO 0 61.8 474
13:40:47 1 1010 210 0 N 0 61.3 477
13:43:46 1 1010 209 0 NO 0 61.5 480
13:46:48 1 1010 208 0 NW 0 61.7 485
13:49:50 1 1010 207 0 NW 0 60.4 480
13:52:48 1 1010 205 0 NW 0 61.5 477
13:55:46 1 1010 204 0 O 0 61.3 477
13:58:47 1 1010 204 0 NO 0 60.8 474
14:01:49 1 1010 203 0 NO 0 60.9 472
14:04:47 1 1010 201 0 NO 0 61.6 460
14:07:46 1 1010 202 0 W 0 61.7 465
14:10:47 1 1010 203 0 N 0 62.2 465
14:13:47 1 1010 202 0 N 0 62.2 462
14:16:48 1 1010 202 0 N 0 62.1 460
14:19:47 1 1010 202 0 O 0 62.3 460
14:22:47 1 1010 200 0 N 0 62.3 456
14:25:49 1 1010 199 0 NW 0 62 462
14:28:47 1 1010 200 0 SW 0 61.7 459
14:31:48 1 1010 199 0 SW 0 62.4 457
14:34:45 1 1010 201 0 O 0 62.6 453
14:37:48 1 1010 200 0 W 0 62.5 451
14:40:47 1 1010 206 0 SW 0 62.5 451
14:43:47 1 1010 208 0 O 0 62.5 458
14:46:49 2 1010 209 0 SO 0 63.3 462
14:49:50 2 1010 210 0 NO 0 62.8 456
14:52:48 2 1010 212 0 NO 0 62.4 459
14:55:47 2 1010 211 0 O 0 62.2 453
14:58:46 2 1010 211 0 W 0 61.4 456
15:01:46 2 1010 211 0 NW 0 60.8 459
15:04:46 2 1010 213 0 W 0 61.2 457
15:07:49 2 1010 211 0 SW 0 60.2 453
15:10:48 2 1010 206 0 SO 0 60.6 450
15:13:46 2 1010 205 0 O 0 61.9 448
15:16:49 2 1010 200 0 NO 0 62.7 448
15:19:46 2 1010 196 0 N 0 61.6 451
15:22:48 2 1010 203 0 SO 0 61.4 450
15:25:46 2 1010 210 0 O 0 62.7 445
15:28:48 2 1010 216 0 N 0 62.5 448
15:31:48 2 1010 224 0 N 0 62 439
15:34:48 2 1010 221 0 SO 0 62.4 445
15:37:49 2 1010 221 0 SO 0 62 439
15:40:50 2 1010 223 0 NW 0 60.9 442
15:43:47 2 1010 221 0 N 0 60.7 439
15:46:47 2 1009 217 0 O 0 60.9 441
15:49:47 2 1010 210 0 SW 0 61.5 439
15:52:47 2 1010 205 0 N 0 60.4 439
15:55:50 2 1010 205 0 NW 0 60.7 436
15:58:46 2 1010 202 0 SO 0 61.4 439
16:01:49 2 1010 202 0 NW 0 61.6 445
16:04:47 2 1010 199 0 NO 0 61.3 450
16:07:46 2 1010 196 0 0 61.8 447
16:10:46 2 1010 194 0 N 0 61.5 442
16:13:47 2 1010 191 0 SO 0 61.1 442
16:16:47 2 1010 190 0 NW 0 61.4 440
16:19:50 2 1010 188 0 NW 0 61.3 440
16:22:47 2 1010 187 0 NO 0 62.4 439
16:25:47 2 1010 186 0 NO 0 62.6 442
16:28:46 2 1010 182 0 O 0 63 443
16:31:46 2 1010 181 0 N 0 63.2 436
16:34:47 2 1010 187 0 NO 0 63.6 425
16:37:48 2 1010 187 0 NW 0 63.4 428
16:40:44 2 1010 184 0 O 0 63.4 436
16:43:47 2 1010 180 0 O 0 63.6 442
16:46:47 2 1010 177 0 O 0 63.8 448
16:49:49 2 1009 170 0 NO 0 65 460
16:52:49 2 1010 170 0 NO 0 65 471
16:55:47 1 1010 168 0 O 0 65 471
16:58:49 1 1010 169 0 NW 0 64.5 472
17:01:48 1 1010 163 0 NO 0 64 474
17:04:46 1 1009 165 0 N 0 63.9 481
17:07:49 1 1010 162 0 N 0 63.5 489
17:10:48 1 1010 161 0 W 0 63.8 500
17:13:45 1 1010 155 0 N 0 64.2 503
17:16:46 1 1010 154 0 NO 0 65.2 500
17:19:46 1 1010 151 0 N 0 65.6 493
17:22:46 1 1009 152 0 N 0 65.5 498
17:25:45 1 1010 144 0 N 0 65.7 501
17:28:46 1 1010 136 0 O 0 66.2 509
17:31:46 1 1010 131 0 0 66.3 521
17:34:47 1 1010 127 0 0 66.5 528
17:37:47 1 1010 121 0 O 0 66.6 533
17:40:50 1 1010 113 0 N 0 66.7 538
17:43:49 1 1010 104 0 SO 0 66.6 544
17:46:47 1 1010 99 0 SO 0 66.5 541
17:49:46 1 1010 97 0 SO 0 66.6 541
17:52:50 1 1010 91 0 SO 0 66.7 538
17:55:49 1 1010 80 0 SO 0 66.8 550
17:58:46 1 1010 69 0 SO 0 67.1 559
18:01:47 1 1010 61 0 SO 0 67.2 562
18:04:48 1 1010 50 0 SO 0 67.3 562
18:07:47 1 1010 39 0 SO 0 67.3 564
18:10:48 1 1010 32 0 SO 0 67.6 574
18:13:49 1 1010 27 0 SO 0 67.8 580
18:16:48 1 1010 21 0 SO 0 67.8 588
18:19:47 1 1010 14 0 SO 0 67.9 588
18:22:46 0 1010 9 0 SO 0 68.1 591
18:25:50 0 1009 5 0 SO 0 68.2 600
18:28:47 0 1010 3 0 SO 0 68.2 600
18:31:46 0 1010 0 0 SO 0 68.3 600
18:34:47 0 1010 0 0 SO 0 68.6 600
18:37:48 0 1010 0 0 SO 0 68.8 608
18:40:52 0 1010 0 0 SO 0 68.9 609
18:43:46 0 1010 0 0 SO 0 68.9 612
18:46:49 0 1010 0 0 SO 0 69 608
18:49:47 0 1010 0 0 SO 0 69.1 611
18:52:48 0 1010 0 0 SO 0 69.4 621
18:55:48 0 1010 0 0 SO 0 69.5 620
18:58:45 0 1010 0 0 SO 0 69.7 620
19:01:46 0 1010 0 0 SO 0 69.7 627
19:04:46 0 1010 0 0 SO 0 69.7 632
19:07:47 0 1010 0 0 SO 0 69.7 644
19:10:47 0 1010 0 0 SO 0 69.9 641
19:13:46 0 1010 0 0 SO 0 69.9 641
19:16:47 0 1010 0 0 SO 0 69.9 645
19:19:46 0 1010 0 0 NW 0 69.9 641
19:22:47 0 1010 0 0 NW 0 70.1 647
19:25:46 0 1010 0 0 NW 0 70.3 644
19:28:46 0 1010 0 0 NW 0 70.4 650
19:31:46 0 1010 0 0 NW 0 70.6 650
19:34:48 0 1010 0 0 NW 0 70.9 659
19:37:50 0 1010 0 0 NW 0 71.3 668
19:40:46 0 1010 0 0 NW 0 71.7 673
19:43:49 0 1010 0 0 NW 0 71.9 667
19:46:46 0 1010 0 0 NW 0 71.8 674
19:49:48 0 1010 0 0 NW 0 71.8 674
19:52:47 0 1010 0 0 NW 0 72.2 677
19:55:48 0 1010 0 0 NW 0 72.5 677
19:58:47 0 1010 0 0 NW 0 72.6 682
20:01:48 0 1010 0 0 NW 0 72.8 688
20:04:49 0 1010 0 0 NW 0 73.3 682
20:07:50 0 1010 0 0 NW 0 73.5 688
20:10:48 0 1010 0 0 NW 0 73.7 697
20:13:49 0 1010 0 0 NW 0 73.8 709
20:16:48 0 1010 0 0 NW 0 74.1 709
20:19:47 0 1010 0 0 NW 0 74.3 716
20:22:48 0 1010 0 0 NW 0 74.8 711
20:25:48 0 1010 0 0 NW 0 75.2 712
20:28:50 0 1010 0 0 NW 0 75.6 712
20:31:49 0 1010 0 0 NW 0 75.7 715
20:34:47 0 1010 0 0 O 0 75.7 708
20:37:49 0 1010 0 0 SW 0 75.9 712
20:40:46 0 1010 0 0 SW 0 76.5 714
20:43:47 0 1010 0 0 NO 0 77.2 715
20:46:45 0 1010 0 0 NO 0 77.2 718
20:49:47 0 1010 0 0 NO 0 77.6 718
20:52:48 0 1010 0 0 NW 0 77.9 720
20:55:47 0 1010 0 0 NW 0 77.9 717
20:58:47 0 1010 0 0 NW 0 77.8 716
21:01:47 0 1010 0 0 NW 0 77.6 718
21:04:48 0 1010 0 0 NW 0 77.5 718
21:07:47 0 1010 0 0 NW 0 77.5 719
21:10:48 0 1010 0 0 NW 0 77.4 715
21:13:46 0 1011 0 0 NW 0 77.7 711
21:16:46 0 1010 0 0 W 0 78 721
21:19:45 0 1010 0 0 W 0 78.4 717
21:22:46 0 1010 0 0 W 0 78.7 720
21:25:46 0 1010 0 0 W 0 78.7 723
21:28:46 -1 1010 0 0 W 0 79 724
21:31:47 -1 1010 0 0 W 0 78.8 725
21:34:46 -1 1010 0 0 W 0 78.8 724
21:37:47 -1 1010 0 0 W 0 78.9 729
21:40:47 -1 1010 0 0 W 0 78.9 720
21:43:46 -1 1010 0 0 W 0 78.7 711
21:46:45 -1 1010 0 0 W 0 78.6 717
21:49:49 -1 1010 0 0 W 0 78.8 720
21:52:47 -1 1010 0 0 W 0 79 717
21:55:46 -1 1010 0 0 W 0 79.1 723
21:58:46 -1 1010 0 0 W 0 79.1 726
22:01:46 -1 1010 0 0 W 0 79.1 726
22:04:50 -1 1010 0 0 W 0 79.4 728
22:07:45 -1 1010 0 0 SW 0 79.5 732
22:10:49 -1 1010 0 0 SW 0 79.6 735
22:13:47 -1 1010 0 0 S 0 79.6 736
22:16:47 -1 1010 0 0 S 0 79.6 736
22:19:47 -1 1011 0 0 S 0 79.7 736
22:22:47 -1 1011 0 0 S 0 79.8 730
22:25:45 -1 1010 0 0 S 0 79.8 732
22:28:47 -1 1010 0 0 S 0 79.9 735
22:31:47 -1 1010 0 0 S 0 79.8 739
22:34:46 -1 1010 0 0 S 0 79.9 732
22:37:45 -1 1010 0 0 S 0 79.8 728
22:40:49 -1 1011 0 0 S 0 79.8 726
22:43:49 -1 1010 0 0 S 0 79.7 723
22:46:45 -1 1010 0 0 S 0 79.7 715
22:49:46 -1 1010 0 0 S 0 79.7 717
22:52:47 -1 1010 0 0 S 0 79.8 719
22:55:45 -1 1010 0 0 S 0 79.7 714
22:58:46 -1 1010 0 0 S 0 79.7 713
23:01:45 -1 1010 0 0 S 0 79.7 717
23:04:47 -1 1011 0 0 S 0 79.7 711
23:07:46 -1 1010 0 0 S 0 79.7 715
23:10:49 -1 1010 0 0 S 0 79.9 710
23:13:46 -1 1010 0 0 S 0 79.9 722
23:16:46 -1 1011 0 0 S 0 80.1 723
23:19:49 -1 1010 0 0 S 0 80 723
23:22:46 -1 1010 0 0 S 0 79.9 724
23:25:47 -1 1010 0 0 S 0 79.8 729
23:28:46 -1 1010 0 0 S 0 79.9 718
23:31:46 -1 1011 0 0 S 0 80 710
23:34:48 -1 1010 0 0 NW 0 80 708
23:37:47 -1 1010 0 0 W 0 80.1 708
23:40:47 -1 1010 0 0 W 0 80.2 703
23:43:47 -1 1011 0 0 W 0 80.2 706
23:46:46 -1 1010 0 0 W 0 80.2 706
23:49:48 -1 1010 0 0 W 0 80.3 706
23:52:48 -1 1010 0 0 S 0 80.1 706
23:55:45 -1 1011 0 0 S 0 80.1 709
23:58:45 -1 1010 0 0 S 0 80.1 710

Letzte Änderung : 22-Jul-2022
Copyright Jens Köhler, Wolfsburg, Obere Dorfstraße 10d